Regional Weather Roundup
Issued by NWS San Angelo, TX

Home | Current Version | Previous Version | Text Only | Print | Product List | Glossary On
Versions: 1 2 3 4 5 6 7 8 9 10 11 12 13 14 15 16 17 18 19 20 21 22 23 24 25 26 27 28 29 30 31 32 33 34 35 36 37 38 39 40 41 42 43 44 45 46 47 48 49 50
000
ASUS44 KSJT 230902
RWRSJT
WEST CENTRAL TEXAS REGIONAL WEATHER ROUNDUP
NATIONAL WEATHER SERVICE SAN ANGELO TX
400 AM CDT MON OCT 23 2017

NOTE: "FAIR" INDICATES FEW OR NO CLOUDS BELOW 12,000 FEET WITH NO
SIGNIFICANT WEATHER AND/OR OBSTRUCTIONS TO VISIBILITY.

TXZ049-054-064>066-071>073-076>078-098-099-113-114-127-128-139-140-
154-155-168>170-231000
...LOCATIONS ACROSS WEST CENTRAL TEXAS...

CITY           SKY/WX    TMP DP  RH WIND       PRES   REMARKS
SAN ANGELO     CLOUDY    46  37  71 W5        30.17F
ABILENE        CLOUDY    49  39  68 S6        30.14F
DYESS AFB      CLEAR     47  38  70 S3        30.14S
JUNCTION       CLEAR     44  38  79 W3        30.19F
SWEETWATER     CLEAR     56  36  47 S12       30.16F
BROWNWOOD      NOT AVBL
COLEMAN        CLOUDY    49  37  63 SW6       30.16F
SONORA         CLEAR     43  36  75 CALM      30.22F
OZONA          FAIR      41  34  75 CALM      30.20S
BRADY          NOT AVBL
$$

TEXAS PANHANDLE/OKLAHOMA PANHANDLE

CITY           SKY/WX    TMP DP  RH WIND       PRES   REMARKS
AMARILLO       CLOUDY    48  34  58 SW9       30.10F
BORGER         CLOUDY    50  34  54 W6        30.07F
CANADIAN       CLOUDY    43  36  76 SW5       30.06F WCI  40
DALHART        CLOUDY    43  34  70 W6        30.11S WCI  39
DUMAS          CLOUDY    47  32  54 W10       30.08F
GUYMON         NOT AVBL
HEREFORD       NOT AVBL
PAMPA          NOT AVBL
PERRYTON       CLOUDY    48  36  63 SW8       30.04F
$$

SOUTHERN PANHANDLE/SOUTH PLAINS/ROLLING PLAINS

CITY           SKY/WX    TMP DP  RH WIND       PRES   REMARKS
LUBBOCK        CLOUDY    50  35  56 W8        30.13F
SNYDER         CLEAR     47  36  64 S5        30.16S
CHILDRESS      CLOUDY    48  38  68 S8        30.10F
SEMINOLE       NOT AVBL
$$

PERMIAN BASIN

CITY           SKY/WX    TMP DP  RH WIND       PRES   REMARKS
MIDLAND        CLOUDY    54  36  50 CALM      30.15F
ODESSA         NOT AVBL
WINK           CLOUDY    44  37  76 NE3       30.14F
$$

FAR WEST/SOUTHWEST MOUNTAINS/TRANS PECOS

CITY           SKY/WX    TMP DP  RH WIND       PRES   REMARKS
ALPINE         CLOUDY    56  31  38 SW12      30.30S
DRYDEN           N/A     56  40  55 NW9       30.15F
EL PASO        PTCLDY    50  22  33 CALM      30.24S
FORT STOCKTON  CLEAR     57  38  48 SW15      30.16S
GUADALUPE PASS NOT AVBL
MARFA          CLOUDY    41  29  62 N5        30.29S WCI  38
PECOS          NOT AVBL
$$

DALLAS/FORT WORTH METROPLEX

CITY           SKY/WX    TMP DP  RH WIND       PRES   REMARKS
DFW AIRPORT    CLEAR     50  45  83 S6        30.10F
FTW MEACHAM    CLEAR     52  45  77 CALM      30.12F
DAL-EXECUTIVE  CLEAR     53  41  63 SW3       30.12F
GRAND PRAIRIE  CLEAR     52  44  74 CALM      30.14F
ADDISON        NOT AVBL
MESQUITE       SUNNY     46  45  96 S3        30.12F
LANCASTER      SUNNY     47  43  85 CALM      30.14F
$$

NORTH CENTRAL TEXAS

CITY           SKY/WX    TMP DP  RH WIND       PRES   REMARKS
SHRMAN/DENISON SUNNY     48  42  77 CALM      30.12S
GAINESVILLE    CLEAR     45  41  87 CALM      30.12F
BRIDGEPORT     SUNNY     43  43 100 CALM      30.14F
DENTON         CLEAR     46  42  86 E3        30.11F
WAXAHACHIE     SUNNY     49  43  81 CALM      30.15S
GRANBURY       NOT AVBL
$$

WESTERN NORTH TEXAS

CITY           SKY/WX    TMP DP  RH WIND       PRES   REMARKS
WICHITA FALLS  CLEAR     50  38  63 SW10      30.09F
VERNON         SUNNY     48  41  75 SW7       30.10F
BRECKENRIDGE   SUNNY     51  38  60 CALM      30.13S
COMANCHE       CLEAR     51  39  63 S6        30.15F
$$

CENTRAL AND SOUTH CENTRAL TEXAS

CITY           SKY/WX    TMP DP  RH WIND       PRES   REMARKS
AUSTIN/BERGSTM CLEAR     49  49 100 CALM      30.16S
WACO           CLEAR     46  44  93 MISG      30.15F FOG
HILLSBORO      NOT AVBL
TEMPLE         CLEAR     48  46  93 CALM      30.17S
KILLEEN-GRAY   CLEAR     51  42  73 W3        30.15F
FORT HOOD      CLEAR     50  45  84 CALM      30.12F
GEORGETOWN     CLEAR     49  45  86 CALM      30.18F
LAGO VISTA     FAIR      57  41  54 NE5       30.17S
SAN MARCOS     CLEAR     49  45  86 NW6       30.16F
NEW BRAUNFELS  CLEAR     50  46  86 NW6       30.15R
RANDOLPH AFB   CLEAR     55  48  76 NW6       30.17S
SAN ANTONIO    CLEAR     55  48  77 W7        30.17S
STINSON        CLEAR     54  50  86 CALM      30.15S
PLEASANTON     NOT AVBL
LA GRANGE      NOT AVBL
GIDDINGS       SUNNY     50  48  95 CALM      30.16S
$$

EAST TEXAS

CITY           SKY/WX    TMP DP  RH WIND       PRES   REMARKS
PARIS          CLEAR     48  45  89 W3        30.11F
CLARKSVILLE    NOT AVBL
TYLER          CLEAR     48  47  96 S3        30.12F
LONGVIEW       CLEAR     47  32  56 CALM      30.11F
PALESTINE      SUNNY     46  46  99 CALM      30.16S
NACOGDOCHES    PTCLDY    46  46 100 CALM      30.14F
$$

TEXAS HILL COUNTRY AND EDWARDS PLATEAU

CITY           SKY/WX    TMP DP  RH WIND       PRES   REMARKS
LLANO          NOT AVBL
HORSESHOE BAY  FAIR      46  46 100 CALM      30.17F
KERRVILLE      CLEAR     45  44  95 N5        30.19S
FREDERICKSBRG  NOT AVBL
ROCKSPRINGS    NOT AVBL
HONDO          CLEAR     50  44  80 N7        30.17F
UVALDE         SUNNY     50  45  81 NE6       30.18S
DEL RIO        CLEAR     60  48  64 SE5       30.14F
$$

SOUTHEAST TEXAS

CITY           SKY/WX    TMP DP  RH WIND       PRES   REMARKS
COLLEGE STN    CLEAR     52  48  86 CALM      30.15S
CALDWELL       SUNNY     49  47  91 CALM      30.16S
CROCKETT       NOT AVBL
BRENHAM        CLEAR     51  50  97 CALM      30.15F
HUNTSVILLE     CLEAR     50  46  86 CALM      30.14S
CONROE         CLEAR     47  47 100 CALM      30.13F
HOUSTON BUSH   CLEAR     56  51  84 N7        30.13S
HOUSTON HOBBY  CLEAR     58  50  75 N6        30.12F
PERLAND        CLEAR     58  51  78 CALM      30.14S
WHARTON        SUNNY     52  48  86 CALM      30.14S
$$

THE UPPER TEXAS COAST

CITY           SKY/WX    TMP DP  RH WIND       PRES   REMARKS
ORANGE         SUNNY     56  55  96 N3        30.12S
PORT ARTHUR    CLEAR     56  53  90 N8        30.10S
GALVESTON      CLEAR     67  56  67 N14       30.12S
ANGLETON       CLEAR     54  52  93 N3        30.13S
BAY CITY       SUNNY     54  52  93 CALM      30.13S
$$

TEXAS COASTAL BEND, RIO GRANDE PLAINS DEEP SOUTH TEXAS

CITY           SKY/WX    TMP DP  RH WIND       PRES   REMARKS
VICTORIA       CLEAR     50  48  93 NW6       30.14S
BEEVILLE       FAIR      55  55  98 CALM      30.14S
ROCKPORT       CLEAR     59  59 100 CALM      30.13F
PORT ARANSAS   NOT AVBL
PORT LAVACA    SUNNY     56  55  93 SW3       30.14F
CORPUS CHRISTI CLEAR     56  56 100 CALM      30.13F
KINGSVILLE NAS NOT AVBL
COTULLA        CLEAR     57  48  72 CALM      30.15F
LAREDO         PTCLDY    62  55  77 S5        30.16S
BROWNSVILLE    CLOUDY    76  68  76 N7        30.10F
PORT ISABEL    CLOUDY    76  67  73 N12       30.09F
HEBBRONVILLE   NOT AVBL
MCALLEN          N/A     72  65  78 NE7       30.12F
WESLACO        CLEAR     68  64  85 N5        30.11F
FALFURRIAS     SUNNY     59  56  89 CALM      30.14S
EDINBURG       SUNNY     64  61  91 N5        30.13F
$$



USA.gov is the U.S. government's official web portal to all federal, state and local government web resources and services.